Find Starlink 36978

NORAD ID: 68960 Int'l Des: 2026-099 Owner: SPXS Country: US Constellation: starlink operational
LEOCIRCULAR

現在のビュー

3D地球を読み込み中...

About Starlink 36978

Starlink 36978 (NORAD 68960) is a starlink constellation satellite (v2 mini) launched May 1, 2026 by SPXS of US. It operates in LEO, CIRCULAR orbit with a mass of 575.00 kg.

Starlink 36978について

説明を読み込み中...

次回通過

Passes for default location (London). Set your location on the main map for personalized predictions.

高度履歴

Loading altitude history...

軌道要素

1 68960U 26099K 26170.91668981 .00039888 00000-0 11873-2 0 9997
2 68960 53.1605 148.6684 0001621 96.0719 123.4994 15.34349089 5867
Epoch: Jun 19, 2026 • Age: 11 hours

現在のステータス

高度 468.3 km
速度 7.63 km/s
衛星直下点 -19.12°S, 60.2°W
打ち上げ日 May 1, 2026
運用期間 0.1 years
タイプ internet

技術仕様

分類 Payload
質量 575.00 kg
乾燥質量 530.00 kg
総質量 575.00 kg
長さ 0.30 m
直径 4.10 m
スパン 29.00 m
形状 Box + pan
製造者 SPXS
バスタイプ Starlink V2MO
フェーズステータス In Orbit
所有者/国 SPXS/US

Most Searched